User: anonymous   Login
Location: Rehoboth Beach
(38.7438°N, 75.1341°W)
Time: 14:59:43
(UTC-05:00)
Language:

Cosmos 1452 Rocket - Orbit

View from above orbital plane
View from above orbital plane
View from above satellite
View from above satellite

Ground track
Ground track

The orbit data is extracted from the following two-line orbital elements,

1 13992U 83031B   17060.51643969  .00000055  00000-0  28001-4 0  9991
2 13992  74.0529 204.6176 0005696 222.1392 202.3391 14.36075259773353
Epoch (UTC): 01 March 2017 12:23:40
Eccentricity: 0.0005696
inclination: 74.0529°
perigee height: 767 km
apogee height: 775 km
right ascension of ascending node: 204.6176°
argument of perigee: 222.1392°
revolutions per day: 14.36075259
mean anomaly at epoch: 202.3391°
orbit number at epoch: 77335

The dashed part of the orbit path shows where the satellite is in the earth's shadow,  

DLR